1496246400.29,55355,20.19,74192.8,5.45,-12.07,-19.23,0,*77
1496246401.51,55356,20.13,74184.3,5.43,-15.07,-21.13,0,*7D
1496246402.74,55357,20.13,74196.0,5.45,-16.51,-20.89,0,*78
1496246403.99,55358,20.13,74192.3,5.43,-18.69,-21.57,0,*76
1496246405.24,55359,20.19,74194.0,5.43,-19.99,-20.35,0,*7C
1496246406.5,55360,20.19,74196.8,5.43,-19.27,-19.13,0,*7D
1496246407.7,55361,20.13,74206.3,5.41,-18.83,-18.69,0,*7D
1496246408.93,55362,20.13,74196.5,5.41,-19.95,-19.61,0,*71
1496246410.13,55363,20.13,74192.3,5.37,-19.03,-18.45,0,*79
1496246411.37,55364,20.13,74186.5,5.41,-17.07,-19.81,0,*7C
1496246412.6,55365,20.13,74182.8,5.37,-18.49,-20.79,0,*74
1496246413.84,55366,20.13,74168.3,5.35,-18.01,-19.07,0,*7A
1496246415.1,55367,20.13,74190.8,5.35,-17.03,-17.35,0,*79
1496246416.29,55368,20.13,74184.0,5.33,-17.31,-19.17,0,*7F
1496246417.54,55369,20.19,74188.3,5.35,-20.19,-21.09,0,*72
1496246418.73,55370,20.13,74186.0,5.33,-21.47,-21.13,0,*7D
1496246419.98,55371,20.13,74184.0,5.31,-20.73,-17.97,0,*71
1496246421.21,55372,20.19,74172.5,5.29,-17.97,-15.15,0,*7D
1496246422.43,55373,20.13,74154.0,5.29,-15.63,-13.97,0,*79
1496246423.67,55374,20.13,74158.8,5.29,-14.29,-12.71,0,*78
1496246424.9,55375,20.13,74160.5,5.25,-13.19,-12.35,0,*71
1496246426.1,55376,20.13,74154.0,5.25,-12.47,-12.43,0,*79
1496246427.33,55377,20.19,74170.3,5.25,-11.93,-12.29,0,*7E
1496246428.55,55378,20.13,74178.3,5.23,-11.23,-12.65,0,*74
1496246429.8,55379,20.13,74186.5,5.23,-11.37,-12.79,0,*7D
1496246431.06,55380,20.13,74188.8,5.25,-10.79,-10.63,0,*7F
1496246432.28,55381,20.13,74182.3,5.23,-11.01,-9.83,0,*40
1496246433.46,55382,20.13,74180.0,5.25,-9.67,-8.63,0,*73
1496246434.67,55383,20.13,74178.8,5.25,-8.97,-7.35,0,*70
1496246435.86,55384,20.13,74184.8,5.23,-7.87,-6.01,0,*79
1496246437.1,55385,20.13,74190.3,5.23,-7.99,-5.23,0,*74
1496246438.34,55386,20.13,74194.0,5.25,-7.27,-3.59,0,*7F
1496246439.53,55387,20.13,74190.8,5.25,-5.97,-1.75,0,*7B
1496246440.74,55388,20.13,74186.0,5.23,-4.21,-1.13,0,*7E
1496246441.96,55389,20.13,74184.8,5.25,-2.63,-0.73,0,*4E
1496246443.15,55390,20.13,74186.5,5.25,-1.71,-0.69,0,*4D
1496246444.36,55391,20.13,74204.0,5.25,-1.13,-0.81,0,*4E
1496246445.57,55392,20.19,74202.5,5.25,-0.89,-1.21,0,*44
1496246446.79,55393,20.13,74194.8,5.25,-1.01,-1.55,0,*77
1496246448.0,55394,20.13,74192.8,5.23,-1.35,-1.79,0,*7F
1496246449.22,55395,20.19,74180.3,5.25,-1.71,-1.83,0,*7D
1496246450.43,55396,20.13,74156.3,5.25,-1.33,-1.09,0,*7A
1496246451.64,55397,20.13,74158.5,5.23,-0.89,-0.41,0,*70
1496246452.81,55398,20.13,74180.5,5.23,-0.37,0.01,0,*63
1496246454.02,55399,20.13,74174.5,5.23,0.21,0.25,0,*7E
1496246455.23,55400,20.13,74198.8,5.25,0.41,0.47,0,*7D
1496246456.44,55401,20.19,74214.5,5.23,0.37,0.33,0,*78
1496246457.65,55402,20.13,74212.0,5.23,0.33,0.47,0,*7C
1496246458.82,55403,20.13,74198.5,5.23,-0.29,-0.03,0,*46
1496246460.01,55404,20.13,74186.5,5.25,-0.33,0.37,0,*56
1496246461.21,55405,20.13,74184.8,5.23,-0.11,0.95,0,*59
1496246462.42,55406,20.13,74190.8,5.23,0.33,1.29,0,*41
1496246463.65,55407,20.13,74196.8,5.25,0.91,1.85,0,*48
1496246464.89,55408,20.13,74198.0,5.29,1.37,2.13,0,*7A
1496246466.11,55409,20.13,74198.3,5.25,1.47,2.05,0,*77
1496246467.33,55410,20.13,74206.8,5.29,1.89,2.47,0,*77
1496246468.56,55411,20.13,74210.8,5.29,2.13,2.51,0,*71
1496246469.79,55412,20.13,74212.8,5.29,2.25,2.59,0,*7F
1496246471.02,55413,20.19,74208.8,5.31,2.35,2.51,0,*7E
1496246472.24,55414,20.13,74218.3,5.29,2.47,2.47,0,*72
1496246473.5,55415,20.13,74208.0,5.31,2.51,2.59,0,*72
1496246474.72,55416,20.13,74210.8,5.31,2.61,2.69,0,*71
1496246475.98,55417,20.13,74208.5,5.31,2.51,2.51,0,*78
1496246477.24,55418,20.13,74210.0,5.31,2.59,2.39,0,*71
1496246478.47,55419,20.13,74218.0,5.31,2.61,2.13,0,*73
1496246479.72,55420,20.13,74218.3,5.31,2.51,1.55,0,*7B
1496246480.97,55421,20.13,74214.8,5.31,1.97,0.83,0,*49
1496246482.17,55422,20.19,74214.3,5.29,1.75,0.55,0,*44
1496246483.42,55423,20.13,74210.0,5.31,1.13,0.33,0,*4C
1496246484.62,55424,20.13,74216.8,5.29,1.01,0.51,0,*45
1496246485.86,55425,20.13,74214.3,5.31,0.75,0.51,0,*7F
1496246487.11,55426,20.19,74216.3,5.31,0.91,0.75,0,*70
1496246488.35,55427,20.19,74214.8,5.31,0.83,0.17,0,*76
1496246489.57,55428,20.13,74216.3,5.31,0.55,-0.69,0,*56
1496246490.78,55429,20.13,74208.8,5.29,-0.41,-1.83,0,*43
1496246492.02,55430,20.13,74206.8,5.31,-1.43,-3.07,0,*7F
1496246493.24,55431,20.13,74206.5,5.31,-2.43,-4.37,0,*79
1496246494.48,55432,20.13,74202.3,5.31,-4.13,-5.27,0,*79
1496246495.74,55433,20.13,74198.0,5.31,-4.81,-4.89,0,*76
1496246496.95,55434,20.13,74194.5,5.29,-4.25,-3.71,0,*76
1496246498.14,55435,20.13,74200.0,5.29,-3.83,-3.03,0,*79
1496246499.33,55436,20.13,74200.3,5.29,-3.19,-2.43,0,*7C
1496246500.54,55437,20.13,74208.5,5.29,-2.47,-2.19,0,*78
1496246501.78,55438,20.13,74206.3,5.29,-2.03,-2.71,0,*79
1496246503.01,55439,20.13,74200.8,5.31,-2.83,-3.71,0,*78
1496246504.26,55440,20.13,74192.3,5.31,-2.67,-3.47,0,*79
1496246505.49,55441,20.13,74192.5,5.29,-2.47,-3.71,0,*76
1496246506.71,55442,20.13,74198.3,5.31,-3.35,-4.45,0,*78
1496246507.9,55443,20.13,74204.5,5.29,-4.25,-4.13,0,*75
1496246509.1,55444,20.13,74204.8,5.29,-4.89,-3.15,0,*75
1496246510.34,55445,20.13,74202.0,5.31,-4.09,-2.67,0,*71
1496246511.59,55446,20.13,74198.3,5.31,-3.19,-2.67,0,*74
1496246512.85,55447,20.13,74194.3,5.31,-2.71,-2.67,0,*7A
1496246514.06,55448,20.19,74196.0,5.33,-2.55,-2.39,0,*7A
1496246515.28,55449,20.19,74202.0,5.33,-2.63,-2.39,0,*7E
1496246516.46,55450,20.13,74202.5,5.33,-2.15,-2.15,0,*79
1496246517.65,55451,20.13,74198.5,5.33,-1.79,-2.23,0,*74
1496246518.86,55452,20.13,74186.8,5.33,-1.63,-1.91,0,*76
1496246520.04,55453,20.13,74208.5,5.33,-1.59,-2.35,0,*73
1496246521.23,55454,20.13,74228.0,5.33,-3.03,-2.99,0,*7F
1496246522.43,55455,20.13,74208.5,5.33,-3.91,-2.99,0,*75
1496246523.67,55456,20.13,74204.5,5.31,-3.79,-3.43,0,*74
1496246524.88,55457,20.13,74204.5,5.31,-3.03,-3.35,0,*79
1496246526.12,55458,20.13,74208.5,5.31,-2.55,-3.35,0,*74
1496246527.33,55459,20.13,74206.5,5.33,-2.15,-4.93,0,*78
1496246528.54,55460,20.13,74206.8,5.33,-2.87,-7.69,0,*7F
1496246529.72,55461,20.13,74212.5,5.33,-5.43,-9.89,0,*71
1496246530.94,55462,20.13,74214.5,5.33,-7.35,-10.05,0,*4D
1496246532.15,55463,20.13,74218.5,5.33,-8.51,-8.93,0,*77
1496246533.36,55464,20.13,74220.8,5.33,-8.37,-7.31,0,*77
1496246534.54,55465,20.13,74216.5,5.33,-7.49,-6.01,0,*72
1496246535.76,55466,20.19,74214.8,5.33,-6.13,-4.81,0,*75
1496246536.97,55467,20.13,74210.8,5.33,-4.81,-4.41,0,*71
1496246538.15,55468,20.13,74204.8,5.33,-4.09,-4.17,0,*7D
1496246539.34,55469,20.19,74210.0,5.33,-3.91,-4.17,0,*7A
1496246540.56,55470,20.13,74208.0,5.33,-3.67,-4.57,0,*7F
1496246541.77,55471,20.13,74204.3,5.33,-3.67,-5.43,0,*7A
1496246542.95,55472,20.13,74206.0,5.33,-4.29,-6.09,0,*79
1496246544.15,55473,20.13,74216.5,5.33,-4.81,-5.97,0,*7E
1496246545.38,55474,20.13,74216.0,5.33,-4.69,-5.77,0,*71
1496246546.61,55475,20.13,74218.3,5.33,-4.81,-6.63,0,*70
1496246547.82,55476,20.13,74216.5,5.33,-5.31,-6.39,0,*76
1496246549.06,55477,20.13,74212.5,5.33,-4.81,-4.93,0,*7F
1496246550.28,55478,20.19,74216.8,5.35,-4.21,-4.21,0,*75
1496246551.53,55479,20.13,74214.8,5.35,-3.43,-4.65,0,*77
1496246552.8,55480,20.13,74212.8,5.35,-3.51,-4.85,0,*7C
1496246554.02,55481,20.13,74208.3,5.35,-3.31,-5.97,0,*79
1496246555.23,55482,20.13,74210.5,5.35,-4.41,-8.89,0,*78
1496246556.43,55483,20.13,74206.8,5.33,-7.15,-10.15,0,*41
1496246557.68,55484,20.13,74198.0,5.35,-9.01,-9.37,0,*73
1496246558.88,55485,20.13,74194.0,5.33,-8.25,-7.87,0,*76
1496246560.09,55486,20.13,74200.5,5.33,-7.35,-6.77,0,*75
1496246561.3,55487,20.13,74206.5,5.35,-6.77,-5.47,0,*75
1496246562.49,55488,20.13,74206.5,5.33,-6.09,-4.99,0,*77
1496246563.73,55489,20.13,74204.5,5.35,-5.73,-4.53,0,*78
1496246564.94,55490,20.13,74204.5,5.33,-4.85,-4.41,0,*7D
1496246566.15,55491,20.19,74208.0,5.33,-4.57,-5.77,0,*77
1496246567.34,55492,20.13,74202.3,5.33,-6.77,-8.21,0,*7A
1496246568.58,55493,20.13,74200.5,5.33,-8.81,-10.79,0,*48
1496246569.83,55494,20.13,74192.3,5.31,-9.11,-8.85,0,*7F
1496246571.07,55495,20.13,74192.5,5.29,-7.61,-7.77,0,*7C
1496246572.29,55496,20.19,74206.5,5.31,-8.85,-11.15,0,*40
1496246573.49,55497,20.13,74212.0,5.29,-13.23,-12.03,0,*7A
1496246574.71,55498,20.13,74208.8,5.29,-14.75,-10.57,0,*72
1496246575.93,55499,20.13,74208.5,5.29,-14.01,-8.33,0,*4B
1496246577.16,55500,20.13,74204.8,5.31,-11.41,-7.19,0,*45
1496246578.37,55501,20.13,74200.0,5.29,-10.01,-5.77,0,*42
1496246579.58,55502,20.13,74216.3,5.29,-9.37,-4.49,0,*70
1496246580.77,55503,20.13,74212.0,5.29,-6.85,-3.35,0,*7B
1496246581.98,55504,20.13,74208.3,5.29,-4.89,-2.95,0,*79
1496246583.21,55505,20.13,74210.0,5.29,-3.55,-3.47,0,*70
1496246584.4,55506,20.13,74216.3,5.29,-4.21,-4.45,0,*72
1496246585.65,55507,20.13,74210.3,5.31,-5.23,-3.47,0,*7C
1496246586.86,55508,20.13,74206.5,5.29,-3.67,-0.69,0,*43
1496246588.06,55509,20.13,74222.8,5.29,-1.67,0.17,0,*64
1496246589.23,55510,20.13,74218.0,5.29,-0.41,-0.03,0,*41
1496246590.47,55511,20.13,74218.0,5.31,0.41,-0.85,0,*5A
1496246591.7,55512,20.13,74216.0,5.29,0.41,-2.47,0,*6C
1496246592.91,55513,20.13,74224.3,5.29,-0.57,-4.89,0,*43
1496246594.15,55514,20.13,74228.5,5.29,-2.47,-7.91,0,*7D
1496246595.37,55515,20.13,74222.0,5.29,-5.03,-10.09,0,*4C
1496246596.61,55516,20.13,74228.5,5.29,-6.93,-12.15,0,*4A
1496246597.86,55517,20.13,74230.0,5.31,-9.67,-16.17,0,*40
1496246599.07,55518,20.13,74228.3,5.29,-15.49,-19.23,0,*7F
1496246600.3,55519,20.13,74232.0,5.29,-19.37,-17.63,0,*71
1496246601.53,55520,20.13,74230.5,5.25,-18.79,-14.05,0,*7F
1496246602.75,55521,20.13,74228.5,5.23,-16.09,-11.15,0,*75
1496246603.99,55522,20.13,74232.0,5.21,-12.65,-9.31,0,*45
1496246605.26,55523,20.13,74234.5,5.21,-10.67,-7.39,0,*42
1496246606.5,55524,20.13,74232.5,5.19,-8.11,-5.11,0,*7E
1496246607.73,55525,20.13,74234.8,5.21,-6.09,-3.67,0,*74
1496246608.95,55526,20.13,74230.3,5.19,-5.03,-2.83,0,*7E
1496246610.21,55527,20.13,74226.3,5.21,-3.63,-2.03,0,*7C
1496246611.45,55528,20.13,74222.0,5.21,-2.63,-1.59,0,*7E
1496246612.68,55529,20.13,74216.5,5.19,-2.03,-1.09,0,*77
1496246613.87,55530,20.13,74214.8,5.19,-1.29,-0.65,0,*4F
1496246615.07,55531,20.13,74212.5,5.21,-0.73,-0.53,0,*7E
1496246616.3,55532,20.13,74212.3,5.21,-0.53,-1.13,0,*4A
1496246617.49,55533,20.13,74214.3,5.21,-0.61,-1.29,0,*43
1496246618.72,55534,20.13,74218.5,5.21,-0.65,-1.35,0,*4D
1496246619.93,55535,20.13,74216.0,5.21,-0.77,-1.29,0,*42
1496246621.16,55536,20.13,74224.5,5.21,-0.73,-1.39,0,*44
1496246622.38,55537,20.13,74226.8,5.23,-0.73,-1.99,0,*4D
1496246623.61,55538,20.13,74228.5,5.23,-0.89,-4.01,0,*43
1496246624.81,55539,20.13,74230.3,5.25,-1.71,-7.83,0,*7B
1496246626.0,55540,20.13,74230.8,5.23,-4.65,-14.23,0,*4B
1496246627.22,55541,20.13,74230.3,5.23,-10.67,-19.71,0,*77
1496246628.44,55542,20.13,74224.5,5.23,-17.31,-23.33,0,*7F
1496246629.69,55543,20.19,74232.3,5.23,-20.99,-23.85,0,*75
1496246630.89,55544,20.13,74224.5,5.23,-22.37,-22.67,0,*79
1496246632.1,55545,20.13,74224.3,5.21,-22.41,-19.07,0,*75
1496246633.35,55546,20.13,74226.5,5.21,-21.47,-15.81,0,*71
1496246634.6,55547,20.13,74224.3,5.19,-17.45,-9.53,0,*4E
1496246635.83,55548,20.13,74224.0,5.19,-13.01,-4.37,0,*4A
1496246637.02,55549,20.13,74216.5,5.19,-6.55,-1.67,0,*7E
1496246638.21,55550,20.13,74222.3,5.19,-2.27,-1.75,0,*74
1496246639.44,55551,20.13,74222.8,5.19,-1.09,-3.59,0,*76
1496246640.66,55552,20.13,74220.8,5.19,-2.31,-7.91,0,*7D
1496246641.87,55553,20.13,74220.3,5.19,-6.69,-17.03,0,*4F
1496246643.12,55554,20.13,74220.5,5.17,-14.61,-22.73,0,*7C
1496246644.37,55555,20.13,74218.8,5.17,-20.39,-24.41,0,*70
1496246645.64,55556,20.13,74222.3,5.17,-23.03,-25.03,0,*7E
1496246646.84,55557,20.13,74220.3,5.15,-25.19,-25.23,0,*72
1496246648.07,55558,20.13,74220.5,5.15,-25.71,-25.19,0,*7A
1496246649.26,55559,20.13,74226.3,5.11,-26.07,-23.13,0,*71
1496246650.51,55560,20.19,74226.3,5.13,-23.65,-16.55,0,*7C
1496246651.73,55561,20.13,74220.3,5.11,-16.37,-13.83,0,*70
1496246652.93,55562,20.13,74214.3,5.11,-13.47,-12.93,0,*71
1496246654.18,55563,20.13,74208.8,5.11,-11.67,-11.67,0,*78
1496246655.38,55564,20.13,74212.5,5.11,-12.25,-11.15,0,*7F
1496246656.64,55565,20.13,74208.3,5.11,-11.89,-10.41,0,*7B
1496246657.87,55566,20.13,74206.5,5.09,-9.53,-10.05,0,*4F
1496246659.12,55567,20.13,74208.3,5.09,-8.81,-10.31,0,*47
1496246660.37,55568,20.13,74210.0,5.09,-8.71,-10.75,0,*47
1496246661.57,55569,20.13,74218.3,5.11,-10.09,-12.21,0,*7A
1496246662.81,55570,20.13,74218.8,5.11,-12.61,-11.93,0,*74
1496246664.02,55571,20.13,74220.0,5.11,-12.25,-10.09,0,*77
1496246665.26,55572,20.13,74210.5,5.13,-11.33,-10.05,0,*7E
1496246666.53,55573,20.13,74210.3,5.13,-11.73,-12.71,0,*7A
1496246667.78,55574,20.13,74210.3,5.11,-15.35,-17.25,0,*7D
1496246669.0,55575,20.13,74218.5,5.13,-18.45,-19.95,0,*71
1496246670.27,55576,20.13,74216.0,5.13,-20.49,-21.83,0,*79
1496246671.48,55577,20.13,74214.8,5.11,-19.99,-20.29,0,*7C
1496246672.7,55578,20.13,74210.0,5.11,-18.35,-19.37,0,*71
1496246673.9,55579,20.13,74212.8,5.11,-18.65,-20.29,0,*70
1496246675.12,55580,20.13,74216.3,5.11,-20.53,-21.93,0,*78
1496246676.37,55581,20.13,74214.0,5.09,-22.73,-23.39,0,*72
1496246677.64,55582,20.13,74214.5,5.09,-23.33,-23.53,0,*78
1496246678.91,55583,20.13,74220.0,5.09,-23.23,-23.53,0,*78
1496246680.16,55584,20.13,74222.8,5.09,-23.59,-23.23,0,*75
1496246681.42,55585,20.13,74226.3,5.09,-21.77,-21.27,0,*7C
1496246682.64,55586,20.13,74224.5,5.11,-21.93,-19.23,0,*73
1496246683.86,55587,20.13,74224.5,5.07,-21.13,-15.01,0,*71
1496246685.13,55588,20.13,74226.8,5.09,-16.27,-11.85,0,*7B
1496246686.39,55589,20.13,74226.8,5.09,-12.83,-10.35,0,*7A
1496246687.67,55590,20.13,74226.8,5.09,-10.63,-11.67,0,*78
1496246688.89,55591,20.13,74226.3,5.09,-10.27,-12.43,0,*7C
1496246690.14,55592,20.13,74230.5,5.09,-11.19,-14.97,0,*7C
1496246691.37,55593,20.13,74222.5,5.11,-11.93,-16.41,0,*7F
1496246692.59,55594,20.13,74216.8,5.11,-14.51,-18.99,0,*78
1496246693.79,55595,20.13,74224.5,5.11,-18.21,-22.97,0,*75
1496246695.02,55596,20.13,74224.5,5.11,-21.87,-23.43,0,*78
1496246696.25,55597,20.13,74224.8,5.07,-24.05,-24.83,0,*7A
1496246697.47,55598,20.13,74224.5,5.09,-25.87,-24.97,0,*75
1496246698.69,55599,20.13,74226.5,5.07,-26.61,-24.67,0,*7E
1496246699.94,55600,20.13,74222.0,5.07,-26.29,-23.19,0,*7F
1496246701.18,55601,20.13,74226.3,5.07,-24.71,-20.69,0,*75
1496246702.4,55602,20.13,74232.3,5.09,-23.59,-19.03,0,*73
1496246703.65,55603,20.13,74226.3,5.01,-23.43,-17.25,0,*7B
1496246704.85,55604,20.13,74224.3,5.03,-22.67,-15.07,0,*7B
1496246706.05,55605,20.13,74222.0,5.03,-20.29,-12.03,0,*71
1496246707.27,55606,20.13,74226.3,5.01,-15.63,-11.01,0,*79
1496246708.49,55607,20.13,74226.5,5.03,-12.83,-13.43,0,*77
1496246709.76,55608,20.13,74222.5,5.01,-12.35,-14.43,0,*70
1496246710.98,55609,20.13,74222.8,5.01,-12.43,-15.07,0,*71
1496246712.23,55610,20.13,74218.5,5.01,-13.15,-14.01,0,*7C
1496246713.47,55611,20.13,74218.0,5.01,-13.43,-14.43,0,*78
1496246714.73,55612,20.13,74226.0,5.01,-14.15,-16.51,0,*7E
1496246715.94,55613,20.13,74228.0,5.01,-17.73,-19.07,0,*70
1496246717.19,55614,20.13,74230.5,5.01,-17.97,-16.83,0,*7E
1496246718.42,55615,20.13,74224.8,5.01,-17.35,-19.51,0,*77
1496246719.7,55616,20.13,74230.5,5.01,-18.93,-21.53,0,*7E
1496246720.95,55617,20.13,74230.8,5.01,-19.47,-21.83,0,*7A
1496246722.2,55618,20.13,74228.3,5.01,-21.03,-22.93,0,*7C
1496246723.42,55619,20.13,74220.8,5.01,-22.03,-22.57,0,*76
1496246724.65,55620,20.13,74228.0,5.01,-22.83,-22.93,0,*7C
1496246725.91,55621,20.13,74228.0,5.01,-22.47,-23.43,0,*79
1496246727.17,55622,20.13,74224.0,5.01,-24.71,-25.39,0,*72
1496246728.39,55623,20.13,74228.5,5.01,-25.87,-25.91,0,*79
1496246729.62,55624,20.13,74234.0,4.99,-25.91,-25.45,0,*70
1496246730.82,55625,20.13,74230.5,4.99,-25.61,-25.09,0,*76
1496246732.1,55626,20.13,74232.3,4.97,-25.81,-25.03,0,*7F
1496246733.33,55627,20.13,74232.5,4.99,-25.97,-25.09,0,*7D
1496246734.59,55628,20.13,74236.0,4.99,-26.29,-25.29,0,*76
1496246735.84,55629,20.13,74236.5,4.97,-26.45,-25.29,0,*73
1496246737.07,55630,20.13,74236.0,4.99,-26.39,-25.29,0,*7E
1496246738.3,55631,20.13,74236.3,4.99,-26.29,-25.23,0,*74
1496246739.52,55632,20.13,74238.3,4.97,-26.45,-25.35,0,*74
1496246740.78,55633,20.13,74232.0,4.95,-26.13,-25.29,0,*79
1496246742.03,55634,20.13,74234.8,4.97,-26.33,-25.35,0,*73
1496246743.29,55635,20.13,74238.3,4.95,-26.13,-24.71,0,*73
1496246744.53,55636,20.13,74238.5,4.95,-25.45,-23.69,0,*7E
1496246745.76,55637,20.13,74236.3,4.95,-23.85,-22.37,0,*7F
1496246746.98,55638,20.13,74242.0,4.95,-24.67,-22.41,0,*7A
1496246748.19,55639,20.13,74242.0,4.95,-24.61,-20.69,0,*75
1496246749.42,55640,20.13,74244.3,4.95,-22.93,-20.35,0,*79
1496246750.63,55641,20.13,74232.3,4.95,-23.89,-19.95,0,*72
1496246751.89,55642,20.13,74234.3,4.93,-23.95,-17.83,0,*73
1496246753.13,55643,20.13,74238.8,4.95,-23.19,-15.29,0,*72
1496246754.36,55644,20.13,74238.0,4.95,-21.43,-12.11,0,*74
1496246755.58,55645,20.13,74238.5,4.95,-19.03,-8.51,0,*45
1496246756.78,55646,20.13,74238.5,4.95,-15.67,-4.29,0,*4B
1496246757.98,55647,20.13,74238.5,4.95,-10.15,-0.81,0,*7C
1496246759.21,55648,20.13,74240.5,4.97,-5.51,0.79,0,*6F
1496246760.43,55649,20.13,74242.3,4.97,-2.27,0.95,0,*6A
1496246761.65,55650,20.13,74242.3,4.97,-0.53,0.55,0,*5F
1496246762.85,55651,20.13,74242.8,4.99,0.71,-0.03,0,*63
1496246764.07,55652,20.13,74242.0,5.01,0.97,-0.85,0,*56
1496246765.33,55653,20.13,74238.5,5.01,0.55,-1.99,0,*65
1496246766.52,55654,20.13,74230.8,5.01,0.01,-3.35,0,*57
1496246767.71,55655,20.13,74226.8,5.03,-0.73,-3.75,0,*48
1496246768.95,55656,20.13,74228.5,5.07,-1.47,-3.71,0,*7D
1496246770.2,55657,20.13,74226.8,5.09,-2.03,-3.47,0,*74
1496246771.46,55658,20.13,74224.0,5.09,-2.67,-3.59,0,*76
1496246772.7,55659,20.13,74224.3,5.09,-3.47,-4.45,0,*7E
1496246773.9,55660,20.13,74230.8,5.11,-4.41,-6.23,0,*7E
1496246775.1,55661,20.13,74230.8,5.11,-4.69,-7.53,0,*73
1496246776.33,55662,20.13,74226.0,5.13,-4.41,-8.03,0,*72
1496246777.56,55663,20.13,74220.8,5.13,-4.73,-9.31,0,*72
1496246778.8,55664,20.13,74226.3,5.13,-6.09,-10.79,0,*4E
1496246780.03,55665,20.13,74232.5,5.13,-8.71,-14.29,0,*4F
1496246781.27,55666,20.13,74228.5,5.15,-12.83,-19.31,0,*78
1496246782.5,55667,20.13,74228.5,5.15,-16.83,-21.33,0,*74
1496246783.75,55668,20.13,74230.5,5.15,-18.89,-21.23,0,*7E
1496246785.01,55669,20.13,74236.0,5.15,-21.33,-21.23,0,*74
1496246786.23,55670,20.13,74234.3,5.15,-20.89,-21.57,0,*7F
1496246787.47,55671,20.13,74234.3,5.13,-21.23,-21.73,0,*7F
1496246788.75,55672,20.13,74236.0,5.13,-22.31,-22.77,0,*7B
1496246789.99,55673,20.13,74234.0,5.13,-22.63,-23.23,0,*7D
1496246791.23,55674,20.13,74232.0,5.11,-24.51,-23.19,0,*76
1496246792.47,55675,20.13,74234.0,5.11,-24.11,-22.21,0,*79
1496246793.66,55676,20.13,74228.3,5.11,-22.87,-18.79,0,*77
1496246794.86,55677,20.13,74224.5,5.07,-19.91,-15.67,0,*7C
1496246796.1,55678,20.13,74224.0,5.09,-15.85,-13.65,0,*70
1496246797.33,55679,20.13,74230.8,5.09,-13.43,-14.15,0,*7D
1496246798.61,55680,20.13,74230.5,5.09,-12.71,-14.01,0,*7E
1496246799.83,55681,20.13,74230.5,5.07,-14.75,-19.13,0,*7D
1496246801.11,55682,20.13,74234.3,5.09,-19.61,-17.63,0,*71
1496246802.36,55683,20.13,74238.8,5.07,-18.35,-16.13,0,*78
1496246803.58,55684,20.13,74232.0,5.03,-17.11,-17.49,0,*7C
1496246804.84,55685,20.13,74232.3,5.07,-17.03,-15.43,0,*72
1496246806.1,55686,20.13,74228.8,5.03,-16.09,-11.89,0,*7C
1496246807.31,55687,20.13,74230.8,5.01,-13.15,-8.41,0,*4B
1496246808.5,55688,20.13,74230.8,5.03,-10.31,-5.43,0,*4C
1496246809.72,55689,20.13,74230.8,4.99,-6.63,-4.25,0,*7E
1496246810.93,55690,20.13,74234.8,4.97,-4.49,-4.57,0,*77
1496246812.17,55691,20.13,74226.5,4.97,-4.17,-5.11,0,*7E
1496246813.42,55692,20.13,74228.8,4.99,-5.23,-6.63,0,*73
1496246814.69,55693,20.13,74228.5,4.97,-7.61,-9.11,0,*72
1496246815.9,55694,20.13,74224.3,4.97,-11.23,-8.63,0,*40
1496246817.15,55695,20.13,74230.3,4.99,-11.93,-6.93,0,*45
1496246818.36,55696,20.13,74228.3,4.95,-10.31,-6.43,0,*4E
1496246819.6,55697,20.13,74228.5,4.95,-9.37,-7.91,0,*7F
1496246820.8,55698,20.13,74228.0,4.95,-9.75,-7.87,0,*71
1496246822.01,55699,20.13,74224.3,4.95,-8.81,-6.77,0,*74
1496246823.26,55700,20.13,74224.5,4.93,-7.95,-5.51,0,*7E
1496246824.49,55701,20.13,74230.8,4.95,-6.81,-5.23,0,*78
1496246825.76,55702,20.13,74228.8,4.93,-7.77,-5.93,0,*7E
1496246826.99,55703,20.13,74230.5,4.93,-8.55,-5.51,0,*7E
1496246828.21,55704,20.13,74226.3,4.93,-8.41,-5.43,0,*7F
1496246829.43,55705,20.13,74230.0,4.91,-8.85,-4.65,0,*71
1496246830.65,55706,20.13,74230.3,4.93,-7.83,-2.99,0,*7C
1496246831.89,55707,20.13,74228.8,4.93,-6.19,-1.25,0,*7B
1496246833.13,55708,20.13,74228.8,4.91,-3.83,0.63,0,*6E
1496246834.38,55709,20.13,74224.3,4.91,-1.09,1.17,0,*5D
1496246835.59,55710,20.13,74222.5,4.91,-0.07,1.47,0,*5F
1496246836.81,55711,20.13,74226.0,4.91,0.37,1.75,0,*41
1496246838.05,55712,20.13,74228.0,4.91,0.75,2.09,0,*4C
1496246839.25,55713,20.13,74228.8,4.91,0.75,2.31,0,*46
1496246840.5,55714,20.13,74222.8,4.91,1.47,2.73,0,*77
1496246841.75,55715,20.13,74220.5,4.91,2.01,2.85,0,*7E
1496246843.0,55716,20.13,74226.0,4.91,2.69,3.15,0,*7B
1496246844.23,55717,20.13,74224.8,4.91,3.15,3.55,0,*74
1496246845.44,55718,20.13,74228.0,4.95,3.45,3.59,0,*76
1496246846.66,55719,20.13,74226.3,4.93,3.53,3.55,0,*7A
1496246847.9,55720,20.13,74234.0,4.95,3.45,3.49,0,*7C
1496246849.1,55721,20.13,74238.5,4.95,3.55,3.49,0,*7C
1496246850.35,55722,20.13,74240.5,4.97,3.11,2.85,0,*7C
1496246851.58,55723,20.13,74236.0,4.97,2.27,1.67,0,*76
1496246852.81,55724,20.13,74236.5,4.99,1.59,1.33,0,*74
1496246854.03,55725,20.13,74236.5,4.99,0.95,1.59,0,*48
1496246855.22,55726,20.13,74232.8,4.99,-0.49,1.43,0,*6C
1496246856.46,55727,20.13,74234.0,4.99,-1.13,1.93,0,*5E
1496246857.64,55728,20.13,74232.3,4.99,-0.77,2.65,0,*68
1496246858.86,55729,20.13,74236.0,4.99,0.13,3.11,0,*44
1496246860.1,55730,20.13,74224.8,4.99,1.25,3.49,0,*75
1496246861.3,55731,20.13,74228.5,4.99,2.51,3.85,0,*74
1496246862.53,55732,20.13,74226.3,5.01,3.37,4.07,0,*7B
1496246863.76,55733,20.13,74224.0,5.01,3.67,4.11,0,*78
1496246864.98,55734,20.13,74220.3,5.01,4.01,4.23,0,*79
1496246866.16,55735,20.13,74222.5,5.03,4.07,4.11,0,*7D
1496246867.36,55736,20.13,74224.5,5.01,4.19,4.23,0,*72
1496246868.54,55737,20.13,74228.8,5.03,4.33,4.33,0,*78
1496246869.72,55738,20.13,74228.3,5.07,4.41,4.37,0,*72
1496246870.91,55739,20.13,74226.5,5.07,4.37,4.37,0,*72
1496246872.12,55740,20.13,74228.0,5.09,4.37,4.41,0,*73
1496246873.32,55741,20.13,74230.5,5.09,4.49,4.49,0,*73
1496246874.55,55742,20.13,74234.8,5.09,4.53,4.63,0,*73
1496246875.76,55743,20.13,74234.3,5.09,4.37,4.37,0,*71
1496246876.94,55744,20.13,74238.5,5.11,4.45,4.57,0,*7C
1496246878.12,55745,20.13,74234.8,5.11,4.07,4.07,0,*7E
1496246879.32,55746,20.13,74232.0,5.11,3.75,3.81,0,*76
1496246880.53,55747,20.13,74224.3,5.11,4.05,4.07,0,*7E
1496246881.73,55748,20.13,74224.0,5.13,4.41,4.41,0,*71
1496246882.93,55749,20.13,74226.8,5.13,4.57,4.57,0,*70
1496246884.16,55750,20.13,74226.5,5.13,4.57,4.67,0,*7B
1496246885.41,55751,20.13,74224.5,5.13,4.59,4.71,0,*73
1496246886.67,55752,20.13,74224.0,5.13,4.59,4.71,0,*70
1496246887.92,55753,20.13,74228.8,5.13,4.67,4.67,0,*7B
1496246889.12,55754,20.13,74232.0,5.15,4.49,4.59,0,*7B
1496246890.35,55755,20.13,74230.8,5.17,4.53,4.63,0,*7A
1496246891.53,55756,20.13,74232.5,5.15,4.49,4.57,0,*77
1496246892.73,55757,20.19,74234.8,5.17,4.37,4.49,0,*72
1496246893.91,55758,20.13,74232.0,5.19,4.27,4.37,0,*7B
1496246895.1,55759,20.13,74230.0,5.19,4.33,4.37,0,*7F
1496246896.3,55760,20.13,74234.8,5.17,4.45,4.45,0,*7F
1496246897.51,55761,20.13,74232.5,5.17,4.37,4.45,0,*7B
1496246898.69,55762,20.13,74234.0,5.19,4.33,4.45,0,*72
1496246899.87,55763,20.13,74236.0,5.19,4.33,4.45,0,*73
1496246901.04,55764,20.13,74232.0,5.19,4.45,4.45,0,*75
1496246902.24,55765,20.13,74236.0,5.21,4.41,4.45,0,*7B
1496246903.41,55766,20.13,74232.8,5.19,4.33,4.27,0,*72
1496246904.6,55767,20.13,74232.8,5.19,4.41,4.37,0,*77
1496246905.77,55768,20.13,74234.0,5.19,4.27,4.15,0,*78
1496246906.99,55769,20.13,74238.5,5.21,4.19,3.97,0,*72
1496246908.17,55770,20.13,74242.3,5.19,3.81,3.55,0,*79
1496246909.39,55771,20.13,74234.5,5.21,3.59,3.15,0,*72
1496246910.59,55772,20.19,74236.0,5.19,3.53,2.95,0,*79
1496246911.8,55773,20.13,74232.5,5.19,2.99,2.51,0,*77